Regional Weather Roundup
Issued by NWS

Home | Current Version | Previous Version | Text Only | Print | Product List | Glossary Off
Versions: 1 2 3 4 5 6 7 8 9 10 11 12 13 14 15 16 17 18 19 20 21 22 23 24 25 26 27 28 29 30 31 32 33 34 35 36 37 38 39 40 41 42 43 44 45 46 47 48 49 50

746
ASUS45 KCYS 240510
RWRWY

WYOMING REGIONAL WEATHER ROUNDUP
NATIONAL WEATHER SERVICE CHEYENNE WY
1100 PM MDT SUN APR 23 2017

NOTE:  "FAIR" INDICATES FEW OR NO CLOUDS BELOW 12,000 FEET
WITH NO SIGNIFICANT WEATHER AND/OR OBSTRUCTIONS TO VISIBILITY.

WYZ001-240600-
YELLOWSTONE NATIONAL PARK

CITY           SKY/WX    TMP DP  RH WIND       PRES   REMARKS
LK YELLOWSTONE   N/A     26  26 100 CALM      29.85F
W YELLOWSTONE  NOT AVBL

$$
WYZ002>013-054>058-071-098>099-240600-
NORTHERN WYOMING

CITY           SKY/WX    TMP DP  RH WIND       PRES   REMARKS
JACKSON        FAIR      39  34  81 N12       29.82S WCI  32
CODY           NOT AVBL
GREYBULL       FAIR      52  39  61 NW18      29.65R
WORLAND        MOCLDY    51  40  65 NW6       29.68R
SHERIDAN       MOCLDY    48  41  76 NW29G37   29.68S
BUFFALO        FAIR      47  39  74 NW24G45   29.67R
GILLETTE       FAIR      52  40  63 W9        29.59F
HULETT         FAIR      52  43  71 SE9       29.58F
NEWCASTLE      FAIR      52  41  66 NE16      29.61F

$$
WYZ014>020-022>026-101>103-240600-
CENTRAL WYOMING

CITY           SKY/WX    TMP DP  RH WIND       PRES   REMARKS
BIG PINEY      FAIR      33  25  72 W8        29.86F WCI  26
PINEDALE       MOCLDY    32  27  80 CALM      29.87S
DUBOIS         FAIR      37  21  52 NW16G22   29.78F WCI  28
LANDER         FAIR      46  30  53 SW12      29.72S
RIVERTON       FAIR      43  33  68 NW12      29.74R
CASPER         CLOUDY    54  35  48 SW26G36   29.69F
DOUGLAS        FAIR      52  37  56 NW6       29.67S

$$
WYZ021-027>030-104>119-240600-
SOUTHERN WYOMING

CITY           SKY/WX    TMP DP  RH WIND       PRES   REMARKS
EVANSTON       FAIR      38  32  79 S7        29.89S WCI  33
KEMMERER         N/A     36  30  80 W5        29.89S WCI  32
FORT BRIDGER   FAIR      39  37  92 SW10      29.90F WCI  33
ROCK SPRINGS   LGT RAIN  41  37  86 SE10      29.87F
DIXON            N/A     48  35  60 NW13G24   29.89R
RAWLINS        CLOUDY    47  33  58 W28G35    29.83R
SARATOGA       FAIR      46  32  57 NW12G23   29.85R
LARAMIE        FAIR      46  27  47 N7        29.77R
CHEYENNE       FAIR      48  36  63 W6        29.71F
TORRINGTON     FAIR      56  37  49 NE3       29.59F
PINE BLUFFS    FAIR      46  37  71 SW3       29.67F

$$




USA.gov is the U.S. government's official web portal to all federal, state and local government web resources and services.